[[{"header":{"parameterUnit":"m.s-1","parameterCategory":1,"la1":30.2991,"la2":30.254,"lo1":-89.0895,"lo2":-89.0444,"dy":0.0017,"dx":0.0017,"nx":28,"ny":28,"refTime":"2024-12-26T03:00:00:Z","depth":0,"parameterNumber":2,"parameterNumberName":"U-component_of_WINDS"},"data":[0,0,0,0,0,0,0,0,0,0,0,0,0,0,0,0,0,0,0,0,0,0,0,0,0,0,0,0,0,0,0,0,0,0,0,0,0,0,0,0,0,0,0,0,0,0,0,0,0,0,0,0,0,0,0,0,0,0,-5.8043,-5.8044,0,-5.8172,-5.8174,-5.8175,-5.8067,-5.8062,-5.8058,-5.8054,-5.8188,-5.8196,-5.8204,0,0,0,0,0,0,0,0,0,0,0,0,0,-5.7704,-5.7711,-5.8043,-5.8044,-5.8046,-5.8172,-5.8174,-5.8175,-5.8068,-5.8062,-5.8057,-5.8052,-5.8186,-5.8195,-5.8204,0,0,0,0,0,0,0,0,0,0,0,0,0,-5.7844,-5.7713,-5.8042,-5.8007,-5.8005,-5.8171,-5.8174,-5.8176,-5.8069,-5.8062,-5.8055,-5.8049,-5.8183,-5.8194,-5.8206,-5.8414,0,0,-5.8241,-5.8246,0,0,0,0,0,0,0,0,-5.7837,-5.7857,-5.8011,-5.801,-5.8008,-5.8096,-5.8103,-5.8256,-5.8071,-5.8045,-5.8054,-5.8046,-5.8163,-5.8176,-5.8215,-5.842,-5.8426,-5.8242,-5.825,-5.8255,-5.8258,0,0,0,0,0,0,0,-5.7827,-5.7851,-5.8094,-5.8013,-5.8012,-5.7986,-5.7998,-5.8132,-5.8141,-5.8047,-5.8039,-5.8056,-5.8161,-5.8204,-5.8218,-5.8428,-5.8242,-5.8253,-5.826,-5.8264,-5.8809,-5.8817,0,0,0,0,0,0,-5.7821,-5.7843,-5.809,-5.8098,-5.7904,-5.7997,-5.8011,-5.8075,-5.8139,-5.8142,-5.8061,-5.805,-5.8188,-5.8204,-5.8222,-5.847,-5.8254,-5.8265,-5.8272,-5.8802,-5.8811,-5.8819,0,0,0,0,0,0,-5.7814,-5.7844,-5.8084,-5.7969,-5.7997,-5.801,-5.8083,-5.8081,-5.8124,-5.815,-5.8151,-5.8104,-5.8183,-5.8206,-5.8367,-5.8473,-5.8271,-5.8281,-5.8793,-5.8805,-5.8815,-5.8967,0,0,0,0,0,0,-5.7804,-5.7842,-5.792,-5.7971,-5.8004,-5.8227,-5.8089,-5.8089,-5.8144,-5.8131,-5.819,-5.8193,-5.818,-5.835,-5.8378,-5.8486,-5.829,-5.8784,-5.8798,-5.8812,-5.8953,-5.8982,-5.9008,0,0,0,0,0,-5.7793,-5.7959,-5.7925,-5.7955,-5.8102,-5.8233,-5.8252,-5.8232,-5.8153,-5.8233,-5.825,-5.8192,-5.8457,-5.8367,-5.8398,-5.8511,-5.8777,-5.8794,-5.8811,-5.8941,-5.8977,-5.9007,0,0,0,0,0,0,-5.7921,-5.7965,-5.7928,-5.8115,-5.8171,-5.8215,-5.8314,-5.8271,-5.8351,-5.8335,-5.8307,-5.8322,-5.8491,-5.8517,-5.8416,-5.8715,-5.8604,-5.8628,-5.8693,-5.8727,-5.8754,-5.8744,-5.83,0,0,0,0,0,-5.7971,-5.8073,-5.8105,-5.8267,-5.8297,-5.8302,-5.8358,-5.8337,-5.8395,-5.8418,-5.8446,-5.8505,-5.8601,-5.8665,-5.8756,-5.8956,-5.8967,-5.9049,-5.9076,-5.9098,-5.9119,-5.9227,-5.9264,-5.8874,-5.8874,-5.8874,0,0,-5.8075,-5.8112,-5.8178,-5.8294,-5.8335,-5.8442,-5.8322,-5.844,-5.8519,-5.8436,-5.859,-5.8613,-5.8676,-5.8858,-5.8939,-5.8885,-5.9229,-5.912,-5.9137,-5.9146,-5.9248,-5.9285,-5.9318,-5.8886,-5.8884,-5.8882,0,0,-5.832,-5.8358,-5.8496,-5.854,-5.8604,-5.8605,-5.8639,-5.8689,-5.8701,-5.8855,-5.8795,-5.8889,-5.9055,-5.9103,-5.9149,-5.9412,-5.9362,-5.9443,-5.9586,-5.9691,-5.9722,-5.9749,-5.9843,-5.9877,-5.9463,-5.9464,-5.9464,0,-5.8442,-5.8599,-5.8574,-5.8696,-5.8749,-5.8679,-5.882,-5.8863,-5.8954,-5.8992,-5.8929,-5.9137,-5.9175,-5.9367,-5.9431,-5.947,-5.9508,-5.9436,-5.9719,-5.9746,-5.9771,-5.9861,-5.9896,-5.9473,-5.9472,-5.9471,-5.947,0,-5.8746,-5.8857,-5.8961,-5.905,-5.9115,-5.9246,-5.9241,-5.931,-5.9284,-5.9293,-5.945,-5.9493,-5.9591,-5.9634,-5.9611,-5.9824,-5.9788,-5.9723,-5.9611,-5.9818,-5.9902,-5.9936,-5.9487,-5.9483,-5.948,-5.9478,0,0,-5.9075,-5.9147,-5.9186,-5.9226,-5.9291,-5.9376,-5.9504,-5.9599,-5.9659,-5.9724,-5.9831,-5.9974,-5.9914,-5.9966,-5.9947,-6.004,-6.0246,-5.9964,-5.9965,-6.0015,-6.0483,-6.0532,-6.0572,-6.0213,-6.0219,-6.0225,-6.0478,0,-5.9322,-5.9545,-5.9526,-5.9737,-5.9838,-5.9773,-5.9885,-5.9937,-5.9949,-6.0037,-6.005,-6.0151,-6.0065,-6.0096,-6.0185,-6.0202,-6.034,-6.0184,-6.0313,-6.0318,-6.0299,-6.0615,-6.0667,-6.0904,-6.0511,-6.0516,-6.052,0,-5.9641,-5.9716,-5.9937,-5.9987,-6.0029,-6.013,-6.0215,-6.03,-6.0359,-6.036,-6.0419,-6.0385,-6.0514,-6.0399,-6.0578,-6.0472,-6.0524,-6.0541,-6.0549,-6.056,-6.0432,-6.0635,-6.0979,-6.1015,-6.0571,-6.0567,-6.0563,0,-5.9858,-6.0015,-6.0168,-6.0203,-6.0265,-6.0338,-6.0367,-6.0418,-6.0477,-6.0552,-6.0589,-6.0679,-6.0728,-6.0798,-6.0789,-6.0706,-6.0971,-6.0855,-6.0976,-6.0977,-6.1035,-6.1032,-6.1392,-6.1069,-6.1069,-6.1068,-6.1067,0,-6.0137,-6.0274,-6.0266,-6.036,-6.0513,-6.049,-6.0642,-6.0663,-6.0709,-6.0806,-6.0755,-6.0848,-6.0829,-6.0922,-6.0915,-6.1064,-6.1087,-6.1092,-6.1089,-6.1097,-6.1097,-6.1131,-6.1114,-6.1077,-6.1075,-6.1073,-6.1072,0,-6.0405,-6.0406,-6.0567,-6.0613,-6.0627,-6.0738,-6.0777,-6.0866,-6.0873,-6.0996,-6.1024,-6.1036,-6.1142,-6.1139,-6.126,-6.1256,-6.1439,-6.1417,-6.1419,-6.1415,-6.1536,-6.1525,-6.1931,-6.1983,-6.1627,-6.163,-6.1633,0,-6.0583,-6.0687,-6.0744,-6.0805,-6.0839,-6.0938,-6.0997,-6.0979,-6.1043,-6.1117,-6.1197,-6.1299,-6.1378,-6.1551,-6.1571,-6.1663,-6.1642,-6.1778,-6.1656,-6.1661,-6.1644,-6.1638,-6.1648,-6.1802,-6.1806,-6.181,-6.1812,0,-6.0898,-6.0893,-6.0979,-6.1067,-6.1139,-6.1207,-6.127,-6.1323,-6.1312,-6.1386,-6.1494,-6.1556,-6.1679,-6.178,-6.1869,-6.1899,-6.1855,-6.1851,-6.1884,-6.1893,-6.189,-6.1893,-6.1485,-6.1842,-6.1839,-6.1836,-6.1835,-6.1834,-6.1126,-6.1216,-6.127,-6.1368,-6.1413,-6.1473,-6.1559,-6.1577,-6.1666,-6.1764,-6.1748,-6.1869,-6.1925,-6.2039,-6.2078,-6.2172,-6.2124,-6.2172,-6.2184,-6.2196,-6.2209,-6.1875,-6.2188,-6.2187,-6.2186,-6.2186,-6.2185,0,-6.1438,-6.1469,-6.156,-6.1649,-6.1727,-6.1678,-6.1745,-6.1813,-6.192,-6.1976,-6.2055,-6.2179,-6.2277,-6.2305,-6.2399,-6.2469,-6.2451,-6.2495,-6.2489,-6.2497,-6.2247,-6.2209,-6.2508,-6.2508,-6.2508,-6.2508,-6.2508,-6.2507,-6.1609,-6.1759,-6.176,-6.1932,-6.1962,-6.2079,-6.2121,-6.2177,-6.2221,-6.2361,-6.2442,-6.2459,-6.2504,-6.2601,-6.2689,-6.2695,-6.2732,-6.2784,-6.2781,-6.2547,-6.2515,-6.2484,-6.2448,-6.2792,-6.2793,-6.3023,-6.3026,-6.3027]},{"header":{"parameterUnit":"m.s-1","parameterCategory":1,"la1":30.2991,"la2":30.254,"lo1":-89.0895,"lo2":-89.0444,"dy":0.0017,"dx":0.0017,"nx":28,"ny":28,"refTime":"2024-12-26T03:00:00:Z","depth":0,"parameterNumber":3,"parameterNumberName":"V-component_of_WINDS"},"data":[0,0,0,0,0,0,0,0,0,0,0,0,0,0,0,0,0,0,0,0,0,0,0,0,0,0,0,0,0,0,0,0,0,0,0,0,0,0,0,0,0,0,0,0,0,0,0,0,0,0,0,0,0,0,0,0,0,0,-1.9887,-1.9887,0,-1.988,-1.988,-1.988,-1.9822,-1.9821,-1.9819,-1.9818,-1.9812,-1.9813,-1.9814,0,0,0,0,0,0,0,0,0,0,0,0,0,-1.9852,-1.9853,-1.9887,-1.9887,-1.9887,-1.988,-1.988,-1.988,-1.9822,-1.982,-1.9819,-1.9817,-1.9811,-1.9813,-1.9814,0,0,0,0,0,0,0,0,0,0,0,0,0,-1.9858,-1.9853,-1.9887,-1.9858,-1.9855,-1.988,-1.988,-1.988,-1.9823,-1.982,-1.9818,-1.9816,-1.9811,-1.9813,-1.9814,-1.9868,0,0,-1.982,-1.9821,0,0,0,0,0,0,0,0,-1.9858,-1.9859,-1.9862,-1.986,-1.9857,-1.985,-1.9865,-1.9876,-1.9823,-1.9835,-1.9818,-1.9815,-1.9826,-1.9827,-1.983,-1.9868,-1.9868,-1.982,-1.9821,-1.9822,-1.9822,0,0,0,0,0,0,0,-1.9857,-1.9859,-1.9884,-1.9862,-1.9859,-1.9844,-1.9843,-1.9867,-1.9843,-1.9834,-1.9829,-1.9829,-1.9824,-1.9828,-1.9829,-1.9868,-1.982,-1.9821,-1.9823,-1.9823,-1.9947,-1.9949,0,0,0,0,0,0,-1.9861,-1.9859,-1.9885,-1.9884,-1.9852,-1.9847,-1.9845,-1.9854,-1.9842,-1.9838,-1.9831,-1.9827,-1.9826,-1.9827,-1.9829,-1.989,-1.9822,-1.9823,-1.9824,-1.9945,-1.9948,-1.995,0,0,0,0,0,0,-1.986,-1.9864,-1.9885,-1.9871,-1.9872,-1.985,-1.986,-1.9855,-1.9859,-1.984,-1.9836,-1.984,-1.9825,-1.9827,-1.9858,-1.9889,-1.9824,-1.9826,-1.9942,-1.9946,-1.9949,-2.0014,0,0,0,0,0,0,-1.986,-1.9864,-1.9884,-1.9872,-1.9873,-1.9915,-1.9862,-1.9857,-1.9862,-1.9856,-1.9847,-1.9844,-1.9823,-1.9856,-1.986,-1.989,-1.9827,-1.994,-1.9944,-1.9948,-2.0009,-2.0019,-2.0027,0,0,0,0,0,-1.9859,-1.9904,-1.9886,-1.9889,-1.9898,-1.9917,-1.9918,-1.9893,-1.9865,-1.9885,-1.9873,-1.9844,-1.9885,-1.986,-1.9864,-1.9895,-1.9938,-1.9943,-1.9948,-2.0004,-2.0017,-2.0027,0,0,0,0,0,0,-1.9922,-1.9901,-1.9881,-1.9924,-1.9922,-1.9907,-1.9932,-1.9907,-1.9914,-1.9908,-1.9877,-1.9876,-1.9912,-1.9907,-1.9879,-1.9946,-1.9906,-1.9912,-1.9948,-1.9959,-1.9969,-1.9969,-1.9829,0,0,0,0,0,-1.994,-1.9957,-1.9938,-1.9977,-1.9977,-1.9955,-1.9962,-1.9943,-1.994,-1.9939,-1.9929,-1.9929,-1.9941,-1.995,-1.996,-2.0007,-2.0004,-2.0031,-2.004,-2.0048,-2.0054,-2.0077,-2.0088,-1.9967,-1.9967,-1.9967,0,0,-1.998,-1.997,-1.9983,-1.999,-1.9986,-2.0004,-1.9955,-1.9976,-1.9988,-1.9943,-1.9972,-1.9964,-1.9961,-2.0,-2.0017,-1.9997,-2.0086,-2.0054,-2.0061,-2.0062,-2.0083,-2.0094,-2.0105,-1.997,-1.997,-1.9969,0,0,-2.006,-2.0055,-2.0086,-2.0083,-2.0078,-2.0062,-2.007,-2.0058,-2.0051,-2.0079,-2.0045,-2.0059,-2.0082,-2.008,-2.0083,-2.016,-2.0133,-2.0164,-2.0213,-2.0236,-2.0246,-2.0254,-2.0281,-2.0291,-2.017,-2.017,-2.017,0,-2.0109,-2.0134,-2.0105,-2.0128,-2.0131,-2.009,-2.012,-2.0119,-2.0119,-2.0122,-2.0099,-2.0125,-2.012,-2.0158,-2.0176,-2.018,-2.0187,-2.0165,-2.0247,-2.0255,-2.0262,-2.0287,-2.0297,-2.0174,-2.0173,-2.0173,-2.0172,0,-2.0194,-2.0212,-2.0238,-2.0237,-2.0243,-2.027,-2.0245,-2.0255,-2.0234,-2.0221,-2.025,-2.0242,-2.0249,-2.0257,-2.0238,-2.0291,-2.0279,-2.0252,-2.0212,-2.0278,-2.0301,-2.031,-2.0179,-2.0178,-2.0176,-2.0176,0,0,-2.0316,-2.0297,-2.0307,-2.0305,-2.0295,-2.0308,-2.0333,-2.0339,-2.0348,-2.0348,-2.0367,-2.0386,-2.036,-2.0363,-2.0343,-2.0363,-2.0424,-2.0333,-2.0333,-2.035,-2.0481,-2.0502,-2.0513,-2.0406,-2.0408,-2.0409,-2.0481,0,-2.0392,-2.0432,-2.0406,-2.0451,-2.0466,-2.0425,-2.0446,-2.0443,-2.043,-2.0441,-2.0428,-2.0441,-2.0407,-2.0408,-2.0426,-2.0413,-2.045,-2.0407,-2.0424,-2.0425,-2.0426,-2.0525,-2.0547,-2.0616,-2.049,-2.0492,-2.0493,0,-2.0487,-2.049,-2.0536,-2.0521,-2.0527,-2.0546,-2.0549,-2.056,-2.0554,-2.0544,-2.0546,-2.052,-2.0543,-2.0503,-2.0533,-2.0505,-2.051,-2.0504,-2.0506,-2.0507,-2.0463,-2.0529,-2.0638,-2.0648,-2.0507,-2.0506,-2.0505,0,-2.057,-2.0586,-2.0614,-2.0614,-2.0598,-2.0613,-2.0607,-2.0599,-2.0604,-2.0606,-2.0609,-2.0615,-2.0618,-2.0622,-2.0599,-2.0572,-2.0632,-2.059,-2.0624,-2.0624,-2.0638,-2.0638,-2.075,-2.0642,-2.0642,-2.0642,-2.0642,0,-2.0658,-2.0688,-2.0651,-2.0669,-2.07,-2.0669,-2.0701,-2.0691,-2.0684,-2.0699,-2.0665,-2.0679,-2.0647,-2.0659,-2.064,-2.0668,-2.067,-2.0662,-2.0656,-2.0665,-2.0666,-2.0668,-2.0662,-2.0645,-2.0644,-2.0643,-2.0643,0,-2.0757,-2.0734,-2.0762,-2.0744,-2.074,-2.0764,-2.0748,-2.0763,-2.0748,-2.0767,-2.077,-2.0746,-2.0757,-2.0734,-2.0743,-2.073,-2.0769,-2.0756,-2.077,-2.0767,-2.0801,-2.0798,-2.0918,-2.0932,-2.0816,-2.0817,-2.0818,0,-2.0815,-2.0836,-2.0819,-2.0826,-2.0822,-2.0834,-2.0838,-2.0808,-2.0814,-2.0808,-2.0824,-2.0832,-2.0837,-2.0858,-2.0841,-2.0847,-2.0834,-2.0876,-2.0835,-2.0842,-2.0834,-2.0833,-2.0835,-2.0884,-2.0886,-2.0887,-2.0888,0,-2.0919,-2.0906,-2.0913,-2.0916,-2.0921,-2.0922,-2.0921,-2.0929,-2.0897,-2.0905,-2.0915,-2.0919,-2.0927,-2.0936,-2.0937,-2.0931,-2.0905,-2.0901,-2.0908,-2.0917,-2.0924,-2.092,-2.0793,-2.0898,-2.0897,-2.0896,-2.0896,-2.0895,-2.0999,-2.1015,-2.1005,-2.1014,-2.1009,-2.1008,-2.1021,-2.1006,-2.1015,-2.1018,-2.1,-2.1014,-2.1006,-2.1006,-2.1003,-2.1013,-2.0995,-2.1007,-2.1009,-2.1013,-2.1018,-2.0923,-2.1014,-2.1013,-2.1013,-2.1013,-2.1013,0,-2.1101,-2.1092,-2.11,-2.1098,-2.1105,-2.1077,-2.1074,-2.1081,-2.1094,-2.1089,-2.1094,-2.1105,-2.1113,-2.1096,-2.1101,-2.1113,-2.1101,-2.1115,-2.1114,-2.1113,-2.1035,-2.1027,-2.1125,-2.1125,-2.1125,-2.1125,-2.1125,-2.1125,-2.1155,-2.1181,-2.1166,-2.1189,-2.118,-2.1193,-2.1193,-2.1191,-2.1187,-2.1201,-2.1206,-2.1195,-2.1185,-2.1189,-2.1194,-2.1189,-2.1192,-2.1211,-2.1202,-2.1129,-2.1119,-2.1108,-2.1101,-2.1212,-2.1213,-2.1279,-2.128,-2.128]}]]